Regional Weather Roundup
Issued by NWS

Home | Current Version | Previous Version | Text Only | Print | Product List | Glossary Off
Versions: 1 2 3 4 5 6 7 8 9 10 11 12 13 14 15 16 17 18 19 20 21 22 23 24 25 26 27 28 29 30 31 32 33 34 35 36 37 38 39 40 41 42 43 44 45 46 47 48 49 50

000
ASUS43 KMPX 192310
RWRMN
WEATHER ROUNDUP FOR MINNESOTA
NATIONAL WEATHER SERVICE TWIN CITIES/CHANHASSEN MN
600 PM CDT TUE SEP 19 2017


NOTE: "FAIR" INDICATES FEW OR NO CLOUDS BELOW 12,000 FEET WITH NO
SIGNIFICANT WEATHER AND/OR OBSTRUCTIONS TO VISIBILITY. N/A MEANS
CURRENT SKY AND/OR WEATHER CONDITIONS ARE NOT AVAILABLE.

MNZ060>063-068>070-200000-
   Twin Cities Metro

CITY           SKY/WX    TMP DP  RH WIND       PRES   REMARKS
TWIN CITIES    CLOUDY    77  63  61 SE16      29.71F
ST PAUL        CLOUDY    76  62  62 SE16G26   29.72F
CRYSTAL        CLOUDY    77  59  53 SE18G24   29.69F
BLAINE         PTSUNNY   79  63  57 SE14G23   29.72F
LAKEVILLE      CLOUDY    75  63  64 SE8G17    29.72F
EDEN PRAIRIE   MOSUNNY   77  63  61 SE18G26   29.68F
SOUTH ST PAUL  CLOUDY    77  60  55 SE8       29.72F
LAKE ELMO      FAIR      73  64  73 SE7       29.75F
$$
MNZ001>005-007-008-013>017-022>024-027-028-200000-
   Northwest Minnesota

CITY           SKY/WX    TMP DP  RH WIND       PRES   REMARKS
BEMIDJI        CLOUDY    68  61  77 SE16G23   29.65F
HALLOCK        CLOUDY    72  63  73 SE16      29.52F
ROSEAU         CLOUDY    70  61  73 SE21G26   29.62F
WARROAD        CLOUDY    70  63  78 SE15G22   29.65F
THIEF RVR FALL CLOUDY    70  61  73 SE16      29.58F
CROOKSTON      CLOUDY    72  63  73 SE14      29.55F
FOSSTON        CLOUDY    68  61  77 SE10G21   29.60F
DETROIT LAKES  CLOUDY    72  63  73 SE23G35   29.57F
MOORHEAD       CLOUDY    73  63  68 SE22G28   29.47F
PARK RAPIDS    CLOUDY    72  63  73 SE20      29.64F
MAHNOMEN       FAIR      70  62  75 SE15G24   29.56F
$$
MNZ006-009>011-018-025>026-200000-
   North Central Minnesota

CITY           SKY/WX    TMP DP  RH WIND       PRES   REMARKS
BAUDETTE       CLOUDY    68  59  73 SE12G22   29.69F
FLAG ISLAND    CLOUDY    66  59  77 E8        29.67S
INTL FALLS     CLOUDY    68  59  73 SE8       29.74F
WASKISH        CLOUDY    66  61  82 E7        29.69F
BIG FORK       CLOUDY    70  61  73 SE6       29.74S
LONGVILLE      MOSUNNY   70  61  73 SE5       29.70F
GRAND RAPIDS   CLOUDY    69  61  75 SE8       29.75F
CRANE LAKE     CLOUDY    66  61  82 CALM      29.80F
ORR            CLOUDY    68  57  68 SE5       29.75F
COOK           CLOUDY    68  61  77 SE5G18    29.79F
WALKER         FAIR      68  61  77 SE10G18   29.67F
$$
MNZ012-019>021-037-200000-
   Northeast Minnesota

CITY           SKY/WX    TMP DP  RH WIND       PRES   REMARKS
DULUTH         MOSUNNY   62  55  77 E16G23    29.82F
ELY            CLOUDY    64  55  72 SE10      29.84S
HIBBING        CLOUDY    67  60  78 SE14      29.78F
EVELETH        CLOUDY    68  61  78 SE10G18   29.81F
DULUTH HARBOR  PTSUNNY   63  59  88 NE22      29.81F
TWO HARBORS    CLOUDY    64  55  72 E14       29.82F
SILVER BAY     PTSUNNY   61  55  82 NE8       29.85F
GRAND MARAIS     N/A     64  53  67 NE14G23   29.89F
G MARAIS ARPRT MOSUNNY   57  46  67 E9G16     29.93F
$$
MNZ029>031-032-039>041-046>048-054>057-064-200000-
   West Central Minnesota

CITY           SKY/WX    TMP DP  RH WIND       PRES   REMARKS
FERGUS FALLS   CLOUDY    73  64  73 SE22      29.51F
WHEATON        CLOUDY    75  64  69 SE20G28   29.50F
MORRIS         CLOUDY    75  66  73 SE22G31   29.53F
ALEXANDRIA     CLOUDY    73  64  73 SE22G28   29.61F
ELBOW LAKE     FAIR      72  65  78 SE17G29   29.54F HAZE
WADENA         CLOUDY    72  63  73 SE15G26   29.62F
GLENWOOD       MOSUNNY   73  64  73 SE21G30   29.61F
APPLETON       CLOUDY    77  64  65 SE18G26   29.52F
BENSON         CLOUDY    75  66  73 S12G28    29.56F
ORTONVILLE     CLOUDY    75  66  73 NE18G26   29.50F
MADISON        CLOUDY    79  68  69 SE20G29   29.52S
WILLMAR        FAIR      75  66  73 SE20G28   29.60F
$$
MNZ033>034-036-042>043-049>051-058-059-200000-
   Central Minnesota

CITY           SKY/WX    TMP DP  RH WIND       PRES   REMARKS
ST CLOUD       MOSUNNY   75  64  68 SE16G22   29.67F
SAUK CENTRE    FAIR      72  64  76 SE13G18   29.63F
PAYNESVILLE    CLOUDY    75  65  70 SE15G22   29.64F
AITKIN         CLOUDY    72  63  73 E8        29.71F
PINE RIVER     CLOUDY    68  61  77 SE12G21   29.72S
BRAINERD       CLOUDY    71  62  73 SE10G20   29.69F
STAPLES        CLOUDY    72  61  68 SE12G17   29.65F
LONG PRAIRIE   FAIR      72  63  73 E16G22    29.64F
LITTLE FALLS   CLOUDY    72  55  56 SE10G20   29.67F
LITCHFIELD     CLOUDY    77  66  69 SE16G25   29.65F
BUFFALO        CLOUDY    76  62  60 E12G18    29.68F
MAPLE LAKE     CLOUDY    76  65  67 SE10G17   29.68F
HUTCHINSON     CLOUDY    77  67  70 SE18G24   29.65F
$$
MNZ037-044-045-052-053-200000-
   East Central Minnesota

CITY           SKY/WX    TMP DP  RH WIND       PRES   REMARKS
PRINCETON      CLOUDY    75  64  69 E9        29.71F
MORA           CLOUDY    72  59  64 SE9       29.74F
CAMBRIDGE      CLOUDY    77  63  61 SE8       29.72F
RUSH CITY      CLOUDY    74  62  67 SE7       29.74F
MOOSE LAKE     CLOUDY    68  59  73 NE6       29.75F
HINCKLEY       CLOUDY    73  63  68 E9        29.75F
CLOQUET        CLOUDY    63  55  77 E13       29.80F
MCGREGOR       MOSUNNY   70  63  78 SE9       29.74F
$$
MNZ071>073-080-081-089-090-097-098-200000-
   Southwest Minnesota

CITY           SKY/WX    TMP DP  RH WIND       PRES   REMARKS
MONTEVIDEO     CLOUDY    75  66  73 S20G25    29.54F
GRANITE FALLS  PTSUNNY   79  69  70 SE18G28   29.57F
CANBY          CLOUDY    76  67  73 E17G25    29.54S
MARSHALL       CLOUDY    77  68  73 S20G28    29.55F
REDWOOD FALLS  CLOUDY    78  65  63 SE21G31   29.58F
OLIVIA         CLOUDY    77  66  69 SE20G26   29.59F
PIPESTONE      CLOUDY    75  66  73 S16G24    29.56S
WINDOM         CLOUDY    79  64  61 SE17G28   29.61F
WORTHINGTON    CLOUDY    77  68  73 SE17G28   29.60F
JACKSON        CLOUDY    77  64  65 SE22G31   29.65S
TRACY          CLOUDY    78  69  75 SE17G28   29.58F
SLAYTON        CLOUDY    77  64  65 SE20G29   29.59F
$$
MNZ065>067-074>077-082>085-091>093-200000-
   South Central Minnesota

CITY           SKY/WX    TMP DP  RH WIND       PRES   REMARKS
MANKATO        CLOUDY    77  65  66 SE21      29.66F
NEW ULM        CLOUDY    77  64  65 SE17G29   29.62F
ST JAMES       CLOUDY    79  64  61 SE17G28   29.64F
FAIRMONT       MOSUNNY   78  67  68 SE21G26   29.65F
GLENCOE        CLOUDY    78  68  72 SE14      29.66F
FARIBAULT      CLOUDY    77  63  61 SE14      29.73F
OWATONNA       SUNNY     77  63  61 SE15G24   29.73F
WASECA         CLOUDY    77  63  61 SE15G23   29.72F
ALBERT LEA     SUNNY     81  64  57 SE17G23   29.72F
$$
MNZ078>079-086>088-094>096-200000-
   Southeast Minnesota

CITY           SKY/WX    TMP DP  RH WIND       PRES   REMARKS
ROCHESTER      SUNNY     76  62  62 SE15G24   29.77F
RED WING       SUNNY     77  61  57 SE10      29.74F
STANTON        CLOUDY    77  63  61 SE10      29.72F
DODGE CENTER   SUNNY     75  61  60 SE13G21   29.76F
WINONA         SUNNY     79  61  53 SE12G17   29.79F
AUSTIN         SUNNY     77  61  57 SE10G17   29.75F
PRESTON        SUNNY     76  60  57 SE12      29.80F
$$
ABBREVIATIONS USED IN REMARKS
   TC - TEMPERATURES IN CELSIUS
  WCI - WIND CHILL INDEX
   HX - HEAT INDEX
  VSB - VISIBILITY
$$



USA.gov is the U.S. government's official web portal to all federal, state and local government web resources and services.